Meteo Giornale » Osservazioni meteo Stati Uniti (USA) » Leesburg
ore: 15:20 - Osservazioni Meteo Leesburg
Lat. 28° 49' N Lon. 81° 48' W Alt. 23 metri s.l.m.
28 °C
Temporale
Temp. 24 Ore
24 °C
34 °C
Sud/Sud-Est
31.5 Km/h
Dew point 24 °C
Umidità 78 %
Visibilità 10 Km
Il sole sorge alle ore 07:04
Il sole tramonta alle ore 19:50
| Data e Ora | Cielo e Fenomeni | T °C | DP °C | Um. % | Pres. hPa | Vis. km | Vento km/h | |
|---|---|---|---|---|---|---|---|---|
| Oggi h: 15:20 | Temporale | 28 | 24 | 78 | 1016 | 10 | S/SE 31.5 | |
| Oggi h: 15:09 | Temporale nelle vicinanze | 32 | 24 | 62 | 1016 | 10 | E/SE 18.5 | |
| Oggi h: 14:53 | Molto Nuvoloso | 33 | 22 | 52 | 1016 | 10 | NE 11.1 | |
| Oggi h: 13:53 | Molto Nuvoloso | 33 | 22 | 52 | 1017 | 10 | N/NE 9.3 | |
| Oggi h: 12:53 | Molto Nuvoloso | 32 | 22 | 55 | 1018 | 10 | E/NE 7.4 | |
| Oggi h: 11:53 | Molto Nuvoloso | 30 | 24 | 70 | 1019 | 10 | N 9.3 | |
| Oggi h: 11:37 | Molto Nuvoloso | 31 | 24 | 66 | 1019 | 10 | N 0 | |
| Oggi h: 10:53 | Nuvoloso | 30 | 24 | 70 | 1018 | 10 | N 0 | |
| Oggi h: 09:53 | Sereno | 29 | 25 | 79 | 1018 | 10 | N 5.5 | |
| Oggi h: 08:53 | Sereno | 26 | 25 | 94 | 1018 | 10 | N 0 | |
| Oggi h: 07:53 | Poco Nuvoloso | 25 | 24 | 94 | 1017 | 10 | N 5.5 | |
| Oggi h: 07:18 | Poco Nuvoloso | 24 | 23 | 94 | 1017 | 10 | N 5.5 | |
| Oggi h: 06:53 | Sereno | 24 | 24 | 100 | 1017 | 10 | N 0 | |
| Oggi h: 06:28 | Poco Nuvoloso | 24 | 24 | 100 | 1017 | 10 | N 0 | |
| Oggi h: 05:53 | Sereno | 24 | 24 | 100 | 1016 | 10 | N 5.5 | |
| Oggi h: 04:53 | Sereno | 24 | 24 | 100 | 1016 | 10 | NE 9.3 | |
| Oggi h: 03:53 | Sereno | 25 | 24 | 94 | 1017 | 10 | NE 9.3 | |
| Oggi h: 02:53 | Sereno | 25 | 24 | 94 | 1017 | 10 | N 5.5 | |
| Oggi h: 01:53 | Poco Nuvoloso | 26 | 24 | 88 | 1018 | 10 | N 5.5 | |
| Oggi h: 01:21 | Nuvoloso | 26 | 24 | 88 | 1017 | 10 | N 0 | |
| Oggi h: 00:53 | Coperto | 26 | 24 | 88 | 1017 | 10 | N 5.5 | |
| Ieri h: 23:53 | Molto Nuvoloso | 27 | 24 | 83 | 1018 | 10 | N 0 | |
| Ieri h: 23:00 | Nuvoloso | 27 | 24 | 83 | 1018 | 10 | N 5.5 | |
| Ieri h: 22:53 | Molto Nuvoloso | 27 | 24 | 83 | 1018 | 10 | E/NE 7.4 | |
| Ieri h: 22:21 | Molto Nuvoloso | 27 | 24 | 83 | 1018 | 10 | N 5.5 | |
| Ieri h: 21:53 | Poco Nuvoloso | 27 | 24 | 83 | 1018 | 10 | N 5.5 | |
| Ieri h: 20:53 | Sereno | 27 | 24 | 83 | 1018 | 10 | E/SE 9.3 | |
| Ieri h: 19:53 | Sereno | 27 | 24 | 83 | 1017 | 10 | SE 9.3 | |
| Ieri h: 18:53 | Molto Nuvoloso | 28 | 23 | 74 | 1017 | 10 | SE 11.1 | |
| Ieri h: 17:53 | Molto Nuvoloso | 29 | 24 | 74 | 1017 | 10 | E 13 | |
| Ieri h: 17:15 | Molto Nuvoloso | 30 | 24 | 70 | 1016 | 10 | E 22.2 | |
| Ieri h: 17:06 | Temporale nelle vicinanze | 29 | 24 | 74 | 1016 | 10 | E/SE 20.3 | |
| Ieri h: 16:53 | Temporale | 29 | 24 | 74 | 1016 | 10 | E 16.7 | |
| Ieri h: 16:40 | Temporale | 29 | 24 | 74 | 1016 | 10 | E 14.8 | |
| Ieri h: 15:53 | Poco Nuvoloso | 34 | 22 | 49 | 1016 | 10 | E 16.7 | |



